loading
DOY 175 | 2024-06-23T12:17:48Z
DECAYED

ELECTRON R/B, 59966 (Decayed)

Orbit data source: Space-Track

ELECTRON R/B, 59966 was space debris in LEO originally from a launch on Wed, 05 Jun 2024 UTC launched from the Rocket Lab Launch Complex (RLLC). Debris objects in space refer to the collection of defunct objects orbiting the Earth. Examples of debris include non-operational satellites, rocket bodies, and fragments generated from explosions, collisions, or faulty payload assembly.

Next visibility unknown
No visualization available: RSO Decayed
ELECTRON R/B details
NORAD ID59966
COSPAR ID
2024-108B
Orbit
Decayed
Last TLE update5 days ago
Origin
Flag of USRocket Lab (US)
ManufacturerRocket Lab
BusElectron St2
MotorUnknown
Mass250 kg wet, ~250 kg dry
Launch date (UTC)
2024-06-05 (3 weeks ago)
Launch vehicleUnknown
Launch site
Rocket Lab Launch Complex (RLLC)
Object type
Payload
Rocket body
Debris
Radar Cross SectionLarge (>1 m²)
Predictive object data (real-time)
LatitudeUnknown
LongitudeUnknown
AltitudeUnknown
SpeedUnknown
Apparent Right ascensionUnknown
Apparent DeclinationUnknown
SunlitUnknown
Predictive observer data (real-time)
Local Sidereal Time23:25:58
AzimuthUnknown
ElevationUnknown
Doppler factorUnknown
Orbital elements
Apogee161.829 km
Perigee121.647 km
Semi-major axis6,519.875 km
Eccentricity0.0030815
Inclination97.476°
RAAN323.0336°
Arg. of periapsis193.7375°
True anomaly210.53116°
Mean anomaly210.7109°
Mean motion4.12272 °/min
BSTAR0.00032658
Period87.32 mins
Definitive object data (Epoch: 2024-06-18T11:52:42.527Z)
Latitude43.89776°
Longitude-129.57075°
Altitude168.957 km
Speed7.799 km/s
True Right ascension21h 03m 17s
True Declination43° 42' 38"
Sunlit
Object was in daylight at TLE epoch
TLE from 5 days ago
0 ELECTRON R/B
1 59966U 24108B   24170.49493666  .30482529  21787-5  32658-3 0  9991
2 59966  97.4760 323.0336 0030815 193.7375 210.7109 16.47875042  2110
Epoch: 2024-06-18T11:52Z
No data available
Other satellites on launch #108 in the year 2024 (2024-06-05 UTC)

ELECTRON R/B Visibility forecast

Observer location: 39.9160978°, -105.1181434, 0m alt.

This satellite is decayed
Span
Click to sort rows by Start time (UTC) header in descending order
Start Az.
Max El. time (UTC)
Max El. Az.
Max El.
End time (UTC)
End Az.